SCP
0 0 0 0 0 0 0 0 0 0 0 0 0 0 0 0 0 0 0 0 0 0 0 0 0 0 0 0 0 0 0 0 0 0 0 0 0 0 0 0 0 0 0
0 0 0 0 0 0 0 0 0 0 0 0 0 0 0 0 0 0 0 0 0 0 0 0 0 0 0 0 0 0 0 0 0 0 0 0 0 0 0 0 0 0 0
0 0 0 0 0 0 0 0 0 0 0 0 0 0 0 0 0 0 0 0 0 0 0 0 0 0 0 0 0 0 0 0 0 0 0 0 0 0 0 0 0 0 0
0 0 0 0 0 0 0 0 0 0 0 0 0 0 0 0 0 0 0 0 0 0 0 0 0 0 0 0 0 0 0 0 0 0 0 0 0 0 0 0 0 0 0
0 0 0 0 0 0 0 0 0 0 0 0 0 0 0 0 0 0 0 0 0 0 0 0 0 0 0 0 0 0 0 0 0 0 0 0 0 0 0 0 0 -0 -0
0 0 0 0 0 0 0 0 0 0 0 0 0 0 0 0 0 0 0 0 0 0 0 0 0 0 0 0 0 0 0 0 0 0 0 0 0 0 0 0 0 -0 -0
0 0 0 0 0 0 0 0 0 0 0 0 0 0 0 0 0 0 0 0 0 0 0 0 0 0 0 0 0 0 0 0 0 0 0 0 0 0 0 0 0 -0 -0
0 0 0 0 0 0 0 0 0 0 0 0 0 0 0 0 0 0 0 0 0 0 0 0 0 0 0 0 0 0 0 0 0 0 0 0 0 0 0 0 0 0 0
0 0 0 0 0 0 0 0 0 0 0 0 0 0 0 0 0 0 0 0 0 0 0 0 0 0 0 0 0 0 0 0 0 0 0 0 0 0 0 0 0 0 0
0 0 0 0 0 0 0 0 0 0 0 0 0 0 0 0 0 0 0 0 0 0 0 0 0 0 0 0 0 0 0 0 0 0 0 0 0 0 0 -0 -0 -0 0
0 0 0 0 0 0 0 0 0 0 0 0 0 0 0 0 0 0 0 0 0 0 0 0 0 0 0 0 0 0 0 0 0 0 0 0 0 0 0 -0 -0 -0 0
0 0 0 0 0 0 0 0 0 0 0 0 0 0 0 0 0 0 0 0 0 0 0 0 0 0 0 0 0 0 0 0 0 0 0 0 0 0 0 -0 -0 -0 0
0 0 0 0 0 0 0 0 0 0 0 0 0 0 0 0 0 0 0 0 0 0 0 0 0 0 0 0 0 0 0 0 0 0 0 0 0 0 0 0 0 0 0
0 0 0 0 0 0 0 0 0 0 0 0 0 0 0 0 0 0 0 0 0 0 0 0 0 0 0 0 0 0 0 0 0 0 0 0 0 0 0 0 0 0 0
0 0 0 0 0 0 0 0 0 0 0 0 0 0 0 0 0 0 0 0 0 0 0 0 0 0 0 0 0 0 0 0 0 0 0 0 0 0 0 0 0 0 0
0 0 0 0 0 0 0 0 0 0 0 0 0 0 0 0 0 0 0 0 0 0 0 0 0 0 0 0 0 0 0 0 0 0 0 0 0 0 0 0 0 0 0
0 0 0 0 0 0 0 0 0 0 0 0 0 0 0 0 0 0 0 0 0 0 0 0 0 0 0 0 0 0 0 0 0 0 0 0 0 0 0 0 0 0 0
0 0 0 0 0 0 0 0 0 0 0 0 0 0 0 0 0 0 0 0 0 0 0 0 0 0 0 0 0 0 0 0 0 0 0 0 0 0 0 0 0 0 0
0 0 0 0 0 0 0 0 0 0 0 0 0 0 0 0 0 0 0 0 0 0 0 0 0 0 0 0 0 0 0 0 0 0 0 0 0 0 0 0 0 0 0
0 0 0 0 0 0 0 0 0 0 0 0 0 0 0 0 0 0 0 0 0 0 0 0 0 0 0 0 0 0 0 0 0 0 0 0 0 0 0 0 0 0 0
0 0 0 0 0 0 0 0 0 0 0 0 0 0 0 0 0 0 0 0 0 0 0 0 0 0 0 0 0 0 0 0 0 0 0 0 0 0 0 0 0 0 0
0 0 0 0 0 0 0 0 0 0 0 0 0 0 0 0 0 0 0 0 0 0 0 0 0 0 -0 0 0 0 0 0 0 0 0 0 0 0 0 0 0 0 0
0 0 0 0 0 0 0 0 0 0 0 0 0 0 0 0 0 0 0 0 0 0 0 0 0 -0 -0 -0 0 0 0 0 0 0 0 0 0 0 0 0 0 0 0
0 0 0 0 0 0 0 0 0 0 0 0 0 0 0 0 0 0 0 0 0 0 0 0 0 -0 -0 0 0 0 0 0 0 0 0 0 0 0 0 0 0 0 0
0 0 0 0 0 0 0 0 0 0 0 0 0 0 0 0 0 0 0 0 0 0 0 0 0 -0 -0 0 0 0 0 0 0 0 0 0 0 0 0 0 0 0 0
0 0 0 0 0 0 0 0 0 0 0 0 0 0 0 0 0 0 0 0 0 0 0 0 0 0 0 0 0 0 0 0 0 0 0 0 0 0 0 0 0 0 0
Wind_Speed
5 4 5 7 6 5 5 5 5 6 8 9 9 9 9 10 11 10 10 9 10 9 9 10 9 10 8 6 7 6 5 5 7 8 5 5 8 7 6 6 6 7 8
1 3 5 4 3 3 6 6 5 6 7 7 8 8 9 9 11 12 12 10 11 10 9 10 10 9 9 9 8 8 7 6 7 10 5 3 5 7 7 6 6 6 7
7 7 5 4 4 4 5 5 6 6 6 7 9 10 10 10 11 11 11 10 10 8 7 8 8 9 8 8 9 8 7 7 7 9 8 4 3 6 7 7 7 7 7
6 5 4 4 4 5 5 5 6 7 7 8 8 10 10 10 11 11 11 10 8 8 7 6 6 7 8 9 9 9 8 8 8 9 9 8 6 7 7 8 8 6 5
7 5 5 5 5 5 5 5 5 6 7 6 7 9 10 10 9 10 10 9 8 9 9 5 3 4 8 3 6 8 9 8 7 8 9 8 8 9 9 8 8 6 5
8 7 5 5 5 5 5 5 5 6 7 6 7 7 7 7 7 6 7 5 5 6 7 7 2 3 5 1 3 2 8 10 10 8 10 10 11 11 10 9 9 7 6
10 8 7 7 6 6 5 4 4 5 6 7 7 6 7 7 8 10 9 7 6 8 7 7 4 1 5 6 4 3 3 5 2 6 9 12 13 14 13 11 10 8 4
8 8 7 6 6 5 5 5 5 4 5 5 6 7 7 6 9 10 8 5 4 5 7 7 6 5 5 6 9 10 10 8 5 4 5 8 9 12 12 11 11 7 4
8 8 6 7 6 6 6 7 7 5 5 5 5 7 6 5 8 10 8 5 4 2 4 7 9 8 5 2 8 11 11 9 10 14 14 13 10 11 10 10 10 8 7
8 7 6 6 5 6 7 7 8 7 7 8 8 8 7 7 8 10 9 5 6 4 2 4 5 7 9 5 7 8 9 10 9 8 9 10 10 11 11 11 10 9 6
7 6 6 6 7 8 6 6 7 7 7 8 8 9 9 8 9 12 9 5 6 7 5 4 4 9 11 7 2 3 5 8 9 9 9 9 9 9 10 8 8 7 7
5 7 7 7 6 6 7 6 6 6 7 8 8 7 7 7 7 13 12 7 6 8 7 6 7 9 11 9 4 7 8 7 6 7 7 7 7 7 7 7 6 6 4
6 7 7 7 7 6 7 7 7 8 7 7 7 7 6 6 6 11 13 9 8 5 7 9 11 10 11 10 11 9 8 6 6 7 8 7 6 6 6 5 5 5 4
6 6 6 6 6 7 6 5 5 5 7 8 7 6 6 5 6 7 9 9 9 8 11 11 10 6 10 13 9 7 4 4 5 6 6 6 6 6 6 6 6 7 6
5 5 7 6 6 7 7 5 6 6 5 5 6 6 6 7 8 8 8 10 11 13 11 7 6 4 5 6 5 4 5 5 5 5 6 7 7 7 6 6 6 7 7
6 7 5 5 5 5 4 3 0 2 4 2 3 5 3 2 4 8 9 8 8 13 11 8 8 9 8 6 6 6 6 6 6 6 6 7 7 7 7 7 7 7 7
4 3 3 4 4 4 5 5 4 3 3 4 3 2 3 2 5 8 10 12 15 15 9 9 8 7 9 8 7 7 7 7 8 7 7 7 8 8 8 8 8 8 7
4 2 3 2 3 4 5 5 5 5 6 5 4 2 3 4 5 9 12 11 11 11 8 9 9 9 9 9 7 7 7 8 7 7 7 7 7 8 8 8 8 9 8
3 3 3 3 4 4 3 3 3 3 3 3 3 3 3 3 6 12 14 8 8 8 7 4 4 6 5 5 7 8 8 8 8 8 7 8 8 8 8 8 8 8 8
3 2 2 4 5 4 4 4 4 4 4 4 4 3 3 3 4 6 6 6 7 7 6 5 5 6 6 6 7 8 8 9 9 8 8 8 8 8 8 9 9 9 9
1 1 2 3 5 5 5 4 3 3 3 4 3 4 3 2 4 5 3 3 4 5 6 6 6 5 5 6 6 8 9 9 9 9 9 9 9 9 9 9 9 9 9
1 1 3 3 2 1 2 3 3 3 3 3 3 4 5 2 3 4 3 3 3 4 6 8 7 7 8 8 9 10 10 11 11 11 11 10 10 10 10 9 9 9 9
2 2 3 2 3 3 3 3 3 3 4 4 4 4 5 4 3 4 4 5 5 5 5 8 10 9 8 9 11 11 11 11 11 12 11 10 10 10 10 10 10 10 10
2 2 2 2 3 3 3 3 3 3 4 4 4 4 4 4 5 5 5 5 6 6 6 7 8 10 12 11 10 10 10 10 10 11 13 11 11 11 11 11 11 12 11
3 3 2 3 3 2 2 2 3 3 3 3 3 3 4 4 4 4 4 5 5 7 8 7 6 8 11 12 12 11 9 8 9 10 12 11 12 12 12 12 11 11 12
3 3 3 2 2 1 2 2 3 3 3 3 3 3 3 3 3 4 4 4 5 6 7 7 8 10 12 12 14 13 11 12 11 11 11 11 12 12 12 12 12 11 11
Wind_Direction
170 158 221 212 186 192 227 232 220 221 216 224 225 227 212 202 197 196 210 196 213 212 211 227 204 189 179 183 195 184 183 182 134 126 111 128 128 125 127 111 104 91 81
185 174 220 252 239 236 248 253 248 245 235 233 236 235 222 210 203 202 209 203 209 216 212 216 209 169 177 180 186 176 181 164 150 136 129 121 132 138 134 129 112 96 92
191 190 191 212 235 235 240 239 240 239 233 230 225 226 223 209 204 208 210 207 208 203 206 214 197 163 188 191 186 181 181 173 160 145 145 132 129 144 148 146 127 116 101
192 192 207 219 217 216 221 229 243 242 234 227 220 212 206 200 200 199 205 199 185 165 166 207 201 176 213 205 192 177 175 174 172 158 149 153 154 169 174 157 150 150 138
194 205 222 212 200 211 229 246 256 260 254 235 228 212 191 193 196 195 202 197 175 164 164 152 294 359 334 222 202 178 174 173 175 164 138 161 162 174 180 174 162 156 148
197 208 212 220 205 213 233 249 255 251 247 225 222 208 193 199 162 175 176 176 187 180 158 138 168 315 311 343 299 220 183 182 182 175 160 175 173 183 183 175 163 166 170
205 210 214 212 207 211 221 235 242 239 230 220 207 196 207 206 165 178 176 191 186 178 173 155 161 182 255 202 174 152 109 61 110 186 179 182 179 183 177 173 172 185 170
213 217 214 222 220 220 224 229 230 227 218 212 203 201 212 206 182 179 176 194 198 195 178 164 185 201 221 206 178 180 167 156 159 188 189 173 168 168 173 169 168 156 97
218 224 203 206 219 235 231 227 220 205 208 207 207 202 201 192 172 169 181 183 160 173 182 184 197 194 184 236 203 179 165 140 74 59 55 75 102 142 161 158 159 163 163
217 219 209 216 225 231 233 228 214 200 209 206 202 212 214 199 172 170 183 179 165 149 165 183 217 179 167 192 227 182 175 158 153 140 111 105 131 144 162 172 168 181 179
212 221 220 229 236 233 231 235 212 196 203 215 207 206 212 215 187 179 191 188 180 172 176 170 166 161 154 149 260 189 164 151 162 158 149 146 149 159 182 201 182 201 200
215 224 226 235 243 240 227 214 198 197 209 216 214 207 210 210 207 183 188 216 195 195 184 183 159 159 139 131 112 97 105 134 159 153 151 155 158 167 184 196 197 206 240
217 218 226 237 238 235 233 220 202 200 211 213 213 212 206 202 211 187 176 180 181 193 146 132 129 138 130 113 114 144 158 167 167 168 163 158 158 157 163 171 176 167 145
249 234 233 239 250 234 222 217 206 212 220 213 206 217 219 192 212 196 177 176 167 143 131 127 121 109 87 98 132 168 173 158 170 165 144 135 142 158 167 167 165 167 165
228 227 242 237 235 248 237 220 216 215 230 239 227 227 213 206 198 201 186 190 183 165 152 145 129 92 111 145 159 159 147 143 138 142 147 156 165 170 172 181 183 186 192
217 220 234 262 257 251 248 219 50 240 205 242 324 311 292 93 143 182 187 177 157 151 164 171 179 176 169 166 170 171 166 164 154 162 166 166 171 177 174 179 185 196 200
285 283 272 258 251 213 202 203 184 169 192 203 208 230 257 224 184 184 170 164 165 165 179 182 182 192 177 167 175 170 169 174 163 168 175 178 180 178 179 184 188 196 199
301 267 237 175 183 201 202 196 196 189 189 178 176 185 198 211 191 168 159 157 171 187 204 202 186 182 181 167 163 171 177 173 170 173 183 185 188 186 191 196 196 199 201
281 221 196 171 178 180 198 180 189 206 218 190 176 154 147 165 169 158 159 164 175 194 199 197 179 166 159 162 168 177 180 175 177 180 185 189 194 197 200 205 204 204 210
216 234 224 176 168 175 191 192 206 194 198 189 198 167 153 141 139 157 169 178 179 184 178 166 177 180 167 178 179 181 181 176 183 189 191 193 198 202 204 206 209 203 208
180 206 249 210 184 185 198 194 217 174 179 194 179 164 182 190 153 168 178 173 176 171 171 169 175 179 180 187 190 193 194 189 192 196 196 197 198 202 207 207 208 210 208
217 207 237 229 162 190 211 157 172 164 163 180 153 159 172 172 168 179 182 186 194 187 186 180 184 195 190 195 203 206 205 204 199 200 200 199 199 204 206 209 210 210 213
233 236 233 214 175 184 182 156 167 152 153 162 162 165 184 202 196 198 199 197 209 207 203 210 200 198 203 207 210 213 212 210 206 202 201 198 200 203 206 207 209 212 214
182 201 211 176 178 185 184 175 175 178 170 166 170 181 193 204 209 207 207 201 199 207 207 217 215 209 210 213 215 217 219 214 207 204 203 201 201 203 206 208 209 211 214
164 142 151 164 174 190 195 200 185 193 189 174 182 189 196 206 217 217 205 202 209 205 204 205 216 224 231 232 225 221 215 209 213 203 200 204 206 205 207 211 213 212 215
137 130 133 138 153 195 204 196 193 199 201 190 194 200 204 210 217 220 215 212 214 221 221 212 218 229 230 229 228 220 206 196 204 205 204 202 205 206 205 209 210 212 213